[Iaude] MPEC J92: 2024 JE2 [a=1.66,e=0.46,i=11.0,H=20.4]

mpec at cfa.harvard.edu mpec at cfa.harvard.edu
Mon May 6 06:35:41 EDT 2024


M.P.E.C. 2024-J92                                   Issued 2024 May 6, 10:34 UT

     The Minor Planet Electronic Circulars contain information on unusual
         minor planets, routine data on comets and natural satellites,
         and occasional editorial announcements.  They are published
    on behalf of Division F of the International Astronomical Union by the
          Minor Planet Center, Smithsonian Astrophysical Observatory,
                          Cambridge, MA 02138, U.S.A.
			  
             Prepared using the Tamkin Foundation Computer Network

                              MPC at CFA.HARVARD.EDU
            URL https://www.minorplanetcenter.net/    ISSN 1523-6714

                                    2024 JE2                                    


Observations:
     K24J02E* C2024 05 02.25387511 16 34.028-26 48 46.54         21.20wXEJ092F51
     K24J02E  C2024 05 02.26412611 16 33.041-26 48 37.49         21.46wXEJ092F51
     K24J02E  C2024 05 02.27431711 16 32.067-26 48 28.50         21.44wXEJ092F51
     K24J02E  C2024 05 02.28450611 16 31.104-26 48 19.43         21.19wXEJ092F51
     K24J02E  C2024 05 02.40281111 16 19.867-26 46 32.22         21.17GVEJ092F51
     K24J02E  C2024 05 02.40347311 16 19.808-26 46 31.42         21.09GVEJ092F51
     K24J02E KC2024 05 02.43873411 16 17.102-26 45 45.11         20.9 GVEJ092474
     K24J02E KC2024 05 02.45319811 16 15.768-26 45 32.29         21.5 GVEJ092474
     K24J02E KC2024 05 02.46043511 16 15.067-26 45 25.99         21.3 GVEJ092474
     K24J02E  C2024 05 04.14285 11 13 51.676-26 20 07.56         21.4 rVEJ092304
     K24J02E  C2024 05 04.14462 11 13 51.539-26 20 06.01         21.3 rVEJ092304
     K24J02E  C2024 05 04.14641 11 13 51.377-26 20 04.17         21.4 rVEJ092304
     K24J02E KC2024 05 04.17315 11 13 49.68 -26 19 54.2                VEJ092291
     K24J02E KC2024 05 04.18587 11 13 48.59 -26 19 42.4          21.6 RVEJ092291
     K24J02E KC2024 05 06.14605911 11 16.044-25 49 39.43         21.10GVEJ092I52
     K24J02E KC2024 05 06.15320411 11 15.544-25 49 32.66         20.85GVEJ092I52
     K24J02E KC2024 05 06.16033811 11 14.953-25 49 25.97         21.19GVEJ092I52
     K24J02E KC2024 05 06.16574311 11 14.500-25 49 21.04         20.77GVEJ092I52

Observer details:
291 LPL/Spacewatch II.  Observer T. H. Bressi.  1.8-m f/2.7 reflector + CCD.
304 Las Campanas Observatory.  Observer S. S. Sheppard.  6.5-m Magellan-Baade
    telescope + CCD.
474 Mount John Observatory, Lake Tekapo.  Observers A. C. Gilmore, P. M.
    Kilmartin.  Measurer P. M. Kilmartin.  0.6-m f/6.3 Reflector + CCD.
F51 Pan-STARRS 1, Haleakala.  Observers J. Herman, T. Lowe, P. Minguez, A.
    Schultz, I. Smith.  Measurers K. Chambers, T. de Boer, J. Fairlamb, H.
    Gao, M. Huber, C.-C. Lin, E. Magnier, Y. Ramanjooloo, R. Wainscoat, R.
    Weryk.  1.8-m Ritchey-Chretien + CCD.
I52 Steward Observatory, Mt. Lemmon Station.  Observer R. A. Kowalski.
    Measurers T. Beuden, V. F. Carvajal, D. Fay, J. B. Fazekas, D. C. Fuls, A.
    R. Gibbs, A. D. Grauer, H. Groeller, J. K. Hogan, R. A. Kowalski, S. M.
    Larson, G. J. Leonard, D. Rankin, R. L. Seaman, F. C. Shelly, K. W.
    Wierzchos.  1.0-m prime focus + CCD.

Orbital elements:
2024 JE2                                                 Earth MOID = 0.0839 AU
Epoch 2024 Mar. 31.0 TT = JDT 2460400.5                 Veres                   
M 295.60729              (2000.0)            P               Q                  
n   0.46106841     Peri.   16.82685     +0.65516903     +0.73516064             
a   1.6594308      Node   294.47541     -0.71329821     +0.52604171             
e   0.4560748      Incl.   11.02465     -0.24891607     +0.42757333             
P   2.14           H   20.45          G   0.15           U   8                  
Residuals in seconds of arc
240502 F51  0.0   0.0     240502 474  0.1+  0.4+    240504 291  0.2-  0.3+
240502 F51  0.1-  0.0     240502 474  0.2+  0.1+    240504 291  0.2+  0.5+
240502 F51  0.1-  0.1-    240502 474  0.1-  0.2-    240506 I52  0.5-  0.1-
240502 F51  0.1+  0.1-    240504 304  0.1-  0.0     240506 I52  0.4+  0.0
240502 F51  0.0   0.2-    240504 304  0.1+  0.1-    240506 I52  0.2+  0.1+
240502 F51  0.0   0.0     240504 304  0.0   0.0     240506 I52  0.1-  0.0

Ephemeris:
2024 JE2                 a,e,i = 1.66, 0.46, 11                  q = 0.9026
Date    TT    R. A. (2000) Decl.     Delta      r    Elong.  Phase     V
2024 04 06    12 09 47.0 -30 57 48   0.6741  1.6296   152.8    16.3    21.5
...
2024 04 21    11 36 45.5 -29 17 16   0.6061  1.5343   143.3    23.0    21.4
...
2024 04 29    11 21 42.9 -27 35 50   0.5854  1.4818   135.4    28.5    21.4
...
2024 05 05    11 12 43.5 -26 07 05   0.5752  1.4417   129.0    32.9    21.4
2024 05 06    11 11 27.0 -25 51 42   0.5739  1.4350   128.0    33.7    21.4
2024 05 07    11 10 14.4 -25 36 14   0.5726  1.4283   126.9    34.4    21.4
...
2024 05 13    11 04 24.5 -24 02 55   0.5665  1.3877   120.7    38.8    21.5
...
2024 05 21    11 00 26.0 -22 02 55   0.5607  1.3331   112.7    44.4    21.5
...
2024 06 05    11 03 43.0 -18 50 07   0.5485  1.2308    99.5    54.4    21.6

M. P. C. Staff               (C) Copyright 2024 MPC           M.P.E.C. 2024-J92





More information about the Iaude mailing list